This is the latest recevied weather packets stored in our database for station/object K8JCL-13. If no packets are shown the sender has not sent any weather packets the latest 10 day(s).
| Time | Temp. | Humidity | Pressure | Rain* | Wind** | Luminosity | Snow |
|---|---|---|---|---|---|---|---|
| 1777395618 | 21.67° C | 73% | 1014.2 hPa | 0 mm | - | 212 W/m² | - |
| 1777395315 | 21.11° C | 76% | 1014.3 hPa | 0 mm | - | 430 W/m² | - |
| 1777395013 | 21.11° C | 76% | 1014.4 hPa | 0 mm | - | 748 W/m² | - |
| 1777394709 | 20.56° C | 77% | 1014.2 hPa | 0 mm | - | 740 W/m² | - |
| 1777394405 | 21.11° C | 76% | 1014.4 hPa | 0 mm | - | 696 W/m² | - |
| 1777394102 | 21.11° C | 73% | 1014.4 hPa | 0 mm | - | 810 W/m² | - |
| 1777393797 | 21.67° C | 75% | 1014.3 hPa | 0 mm | - | 765 W/m² | - |
| 1777393496 | 20.56° C | 78% | 1014.4 hPa | 0 mm | - | 738 W/m² | - |
| 1777393193 | 20° C | 78% | 1014.5 hPa | 0 mm | - | 680 W/m² | - |
| 1777392890 | 20° C | 82% | 1014.3 hPa | 0 mm | - | 128 W/m² | - |
| 1777392584 | 20° C | 82% | 1014.4 hPa | 0 mm | - | 201 W/m² | - |
| 1777392281 | 20.56° C | 79% | 1014.5 hPa | 0 mm | - | 140 W/m² | - |
| 1777391975 | 20.56° C | 80% | 1014.3 hPa | 0 mm | - | 343 W/m² | - |
| 1777391671 | 21.11° C | 81% | 1014.2 hPa | 0 mm | - | 269 W/m² | - |
| 1777391367 | 19.44° C | 83% | 1014.2 hPa | 0 mm | - | 688 W/m² | - |
| 1777391064 | 18.89° C | 84% | 1014.2 hPa | 0 mm | - | 170 W/m² | - |
| 1777390760 | 18.89° C | 83% | 1014.3 hPa | 0 mm | - | 186 W/m² | - |
| 1777390457 | 18.89° C | 85% | 1014.2 hPa | 0 mm | - | 185 W/m² | - |
| 1777390154 | 19.44° C | 84% | 1014.1 hPa | 0 mm | - | 162 W/m² | - |
| 1777389850 | 19.44° C | 85% | 1014.1 hPa | 0 mm | - | 174 W/m² | - |
| 1777389547 | 19.44° C | 85% | 1014.2 hPa | 0 mm | - | 182 W/m² | - |
| 1777389243 | 18.33° C | 90% | 1014.1 hPa | 0 mm | - | 674 W/m² | - |
| 1777388942 | 17.78° C | 88% | 1014.1 hPa | 0 mm | - | 197 W/m² | - |
| 1777388637 | 17.78° C | 93% | 1014.2 hPa | 0 mm | - | 210 W/m² | - |
| 1777388335 | 16.67° C | 97% | 1014.1 hPa | 0 mm | - | 680 W/m² | - |
* Rain latest hour (hover to see other rain measurements)
** Current wind speed in m/s (hover to see current wind gust speed)